Alturas, CA

11:15 AM PST on December 14, 2017 (GMT -0800)
Alturas Municipal

Weather History for KAAT - January, 2014

Change the Weather History Date:

Thursday, January 9, 2014

  Actual Average Record
Temperature  
Mean Temperature 35 °F 29 °F  
Max Temperature 42 °F 41 °F 56 °F (2012)
Min Temperature 27 °F 18 °F -21 °F (1977)
Degree Days  
Heating Degree Days 30 36  
Month to date heating degree days 285 324  
Since 1 July heating degree days 3302 3234  
Cooling Degree Days 0 0  
Month to date cooling degree days 0 0  
Year to date cooling degree days 0 0  
Moisture  
Dew Point 30 °F    
Average Humidity 73    
Maximum Humidity 92    
Minimum Humidity 54    
Precipitation  
Precipitation T in 0.06 in 0.42 in (2008)
Month to date precipitation 0.01 0.63  
Year to date precipitation 0.01 0.63  
Snow  
Snow 0.00 in - - ()
Month to date snowfall  
Since 1 July snowfall 0.0  
Snow Depth -    
Sea Level Pressure  
Sea Level Pressure 30.12 in    
Wind  
Wind Speed 6 mph (WSW)    
Max Wind Speed 15 mph    
Max Gust Speed 19 mph    
Visibility 9 miles    
Events Snow    
T = Trace of Precipitation, MM = Missing Value Source: NWS Daily Summary

Daily Weather History Graph

Daily Weather History Graph

Search for Another Location

Airport or City:

Trip Planner

Search our weather history database for the weather conditions in past years. The results will help you decide how hot, cold, wet, or windy it might be!

Date:

Astronomy

Jan. 09, 2014 Rise Set
Actual Time 7:28 AM PST 4:51 PM PST
Civil Twilight 6:57 AM PST 5:21 PM PST
Nautical Twilight 6:22 AM PST 5:56 PM PST
Astronomical Twilight 5:49 AM PST 6:29 PM PST
Moon 12:22 PM PST (1/9) 1:39 AM PST (1/9)
Length of Visible Light 10h 24m
Length of Day
9h 22m
Waxing Gibbous, 67% of the Moon is Illuminated
Jan 9
Waxing Gibbous
Jan 15
Full
Jan 23
Last Quarter
Jan 30
New
Feb 6
First Quarter

Hourly Weather History & Observations

Time (PST) Temp. Windchill Dew Point Humidity Pressure Visibility Wind Dir Wind Speed Gust Speed Precip Events Conditions
12:55 AM 39.0 °F 32.8 °F 30.9 °F 73% 30.04 in 10.0 mi West 9.2 mph - N/A   Overcast
1:55 AM 39.0 °F 32.8 °F 30.9 °F 73% 30.05 in 10.0 mi West 9.2 mph - N/A   Overcast
2:35 AM 37.9 °F 29.6 °F 30.9 °F 76% 30.06 in 10.0 mi WSW 13.8 mph - N/A   Overcast
2:55 AM 37.9 °F 31.5 °F 30.9 °F 76% 30.06 in 10.0 mi WSW 9.2 mph - N/A   Overcast
3:21 AM 37.9 °F 32.7 °F 30.9 °F 76% 30.06 in 10.0 mi WSW 6.9 mph - N/A   Overcast
3:55 AM 37.9 °F 32.1 °F 30.9 °F 76% 30.07 in 10.0 mi WSW 8.1 mph - N/A   Overcast
4:55 AM 37.0 °F 34.5 °F 30.9 °F 79% 30.08 in 10.0 mi Variable 3.5 mph - N/A   Overcast
5:26 AM 37.0 °F 30.4 °F 30.9 °F 79% 30.07 in 10.0 mi West 9.2 mph - N/A   Overcast
5:55 AM 36.0 °F 29.6 °F 30.9 °F 82% 30.10 in 10.0 mi West 8.1 mph - N/A   Overcast
6:55 AM 35.1 °F 29.3 °F 30.0 °F 82% 30.10 in 10.0 mi West 6.9 mph - N/A   Mostly Cloudy
7:55 AM 34.0 °F 29.8 °F 30.9 °F 89% 30.12 in 10.0 mi West 4.6 mph - N/A   Mostly Cloudy
8:55 AM 36.0 °F 30.3 °F 30.9 °F 82% 30.15 in 10.0 mi West 6.9 mph - N/A   Overcast
9:22 AM 36.0 °F 29.6 °F 30.9 °F 82% 30.13 in 10.0 mi West 8.1 mph - N/A   Overcast
9:29 AM 37.0 °F 31.0 °F 30.9 °F 79% 30.14 in 10.0 mi West 8.1 mph - N/A   Overcast
9:55 AM 37.9 °F 32.7 °F 30.0 °F 73% 30.17 in 10.0 mi West 6.9 mph - N/A   Overcast
10:55 AM 37.9 °F 34.4 °F 30.0 °F 73% 30.17 in 10.0 mi WNW 4.6 mph - N/A   Overcast
11:55 AM 41.0 °F 34.3 °F 27.0 °F 57% 30.14 in 10.0 mi West 11.5 mph - N/A   Mostly Cloudy
12:55 PM 39.9 °F 33.4 °F 24.1 °F 53% 30.11 in 10.0 mi West 10.4 mph - N/A   Overcast
1:47 PM 37.9 °F 31.5 °F 28.9 °F 70% 30.12 in 4.0 mi WNW 9.2 mph - 0.00 in Snow Light Snow
1:55 PM 37.0 °F 31.0 °F 30.0 °F 76% 30.14 in 5.0 mi WNW 8.1 mph - 0.00 in Snow Light Snow
2:04 PM 37.0 °F 33.3 °F 28.9 °F 73% 30.11 in 9.0 mi West 4.6 mph - 0.00 in   Overcast
3:55 PM 39.0 °F 34.0 °F 28.9 °F 67% 30.13 in 10.0 mi SSE 6.9 mph - N/A   Overcast
4:51 PM 37.4 °F 31.4 °F 30.2 °F 75% 30.12 in 10.0 mi South 8.1 mph - N/A   Overcast
4:55 PM 37.9 °F 32.7 °F 30.0 °F 73% 30.14 in 10.0 mi SSE 6.9 mph - N/A   Overcast
5:55 PM 37.0 °F 32.4 °F 32.0 °F 82% 30.14 in 10.0 mi SSE 5.8 mph - 0.00 in   Overcast
6:55 PM 36.0 °F - 33.1 °F 89% 30.16 in 10.0 mi Calm Calm - N/A   Overcast
7:55 PM 36.0 °F 31.1 °F 32.0 °F 86% 30.17 in 10.0 mi South 5.8 mph - N/A   Overcast
8:55 PM 37.0 °F 33.3 °F 32.0 °F 82% 30.16 in 10.0 mi SSE 4.6 mph - N/A   Overcast
9:52 PM 32.0 °F - 28.4 °F 87% 30.14 in 10.0 mi Calm Calm - N/A   Scattered Clouds
9:55 PM 30.9 °F - 28.0 °F 89% 30.18 in 10.0 mi Calm Calm - N/A   Scattered Clouds
10:55 PM 28.0 °F - 26.1 °F 92% 30.20 in 2.5 mi Calm Calm - N/A   Clear
11:03 PM 28.9 °F - 28.0 °F 96% 30.16 in 5.0 mi Calm Calm - N/A   Clear
11:55 PM 27.0 °F - 25.0 °F 92% 30.21 in 10.0 mi Calm Calm - N/A   Clear